Time,TemperatureF,DewpointF,PressureIn,WindDirection,WindDirectionDegrees,WindSpeedMPH,WindSpeedGustMPH,Humidity,HourlyPrecipIn,Conditions,Clouds,dailyrainin,SoftwareType,DateUTC
2013-10-13 00:03:00,61.0,49.1,28.64,NE,45,5.0,5.0,65,0.00,,,0.00,meteohub,2013-10-13 05:03:00,
2013-10-13 00:08:00,61.0,49.1,28.65,North,0,1.0,5.0,65,0.00,,,0.00,meteohub,2013-10-13 05:08:00,
2013-10-13 00:13:00,60.6,49.3,28.65,NE,45,1.0,5.0,66,0.00,,,0.00,meteohub,2013-10-13 05:13:00,
2013-10-13 00:18:00,60.6,49.3,28.65,North,0,1.0,5.0,66,0.00,,,0.00,meteohub,2013-10-13 05:18:00,
2013-10-13 00:23:00,60.6,49.3,28.65,NE,45,1.0,2.0,66,0.00,,,0.00,meteohub,2013-10-13 05:23:00,
2013-10-13 00:28:00,60.8,49.8,28.65,NE,45,3.0,3.0,67,0.00,,,0.00,meteohub,2013-10-13 05:28:00,
2013-10-13 00:33:00,60.6,49.3,28.65,North,0,1.0,7.0,66,0.00,,,0.00,meteohub,2013-10-13 05:33:00,
2013-10-13 00:38:00,60.6,49.6,28.64,NE,45,1.0,7.0,67,0.00,,,0.00,meteohub,2013-10-13 05:38:00,
2013-10-13 00:43:00,60.4,49.5,28.64,North,0,3.0,7.0,67,0.00,,,0.00,meteohub,2013-10-13 05:43:00,
2013-10-13 00:48:00,59.9,48.9,28.64,NW,315,1.0,4.0,67,0.00,,,0.00,meteohub,2013-10-13 05:48:00,
2013-10-13 00:53:00,59.4,49.1,28.65,NE,45,1.0,4.0,69,0.00,,,0.00,meteohub,2013-10-13 05:53:00,
2013-10-13 00:58:00,59.0,49.3,28.65,North,0,1.0,4.0,70,0.00,,,0.00,meteohub,2013-10-13 05:58:00,
2013-10-13 01:03:00,59.0,49.3,28.65,North,0,0.0,3.0,70,0.00,,,0.00,meteohub,2013-10-13 06:03:00,
2013-10-13 01:08:00,58.5,49.1,28.64,North,0,1.0,3.0,71,0.00,,,0.00,meteohub,2013-10-13 06:08:00,
2013-10-13 01:13:00,57.9,48.9,28.65,NE,45,1.0,3.0,72,0.00,,,0.00,meteohub,2013-10-13 06:13:00,
2013-10-13 01:18:00,58.1,49.5,28.65,North,0,1.0,1.0,73,0.00,,,0.00,meteohub,2013-10-13 06:18:00,
2013-10-13 01:23:00,58.1,49.5,28.65,NE,45,1.0,1.0,73,0.00,,,0.00,meteohub,2013-10-13 06:23:00,
2013-10-13 01:28:00,58.6,50.0,28.65,NE,45,4.0,4.0,73,0.00,,,0.00,meteohub,2013-10-13 06:28:00,
2013-10-13 01:33:00,59.5,50.5,28.65,NE,45,2.0,2.0,72,0.00,,,0.00,meteohub,2013-10-13 06:33:00,
2013-10-13 01:38:00,60.1,50.2,28.65,North,0,8.0,8.0,70,0.00,,,0.00,meteohub,2013-10-13 06:38:00,
2013-10-13 01:43:00,60.6,50.4,28.65,NW,315,6.0,8.0,69,0.00,,,0.00,meteohub,2013-10-13 06:43:00,
2013-10-13 01:48:00,61.0,50.4,28.65,North,0,5.0,8.0,68,0.00,,,0.00,meteohub,2013-10-13 06:48:00,
2013-10-13 01:53:00,61.3,50.7,28.65,NE,45,7.0,8.0,68,0.00,,,0.00,meteohub,2013-10-13 06:53:00,
2013-10-13 01:58:00,61.7,50.7,28.65,East,90,4.0,8.0,67,0.00,,,0.00,meteohub,2013-10-13 06:58:00,
2013-10-13 02:03:00,61.9,50.4,28.65,North,0,8.0,8.0,66,0.00,,,0.00,meteohub,2013-10-13 07:03:00,
2013-10-13 02:08:00,62.1,50.5,28.65,NW,315,8.0,11.0,66,0.00,,,0.00,meteohub,2013-10-13 07:08:00,
2013-10-13 02:14:00,62.1,50.5,28.65,NE,45,4.0,11.0,66,0.00,,,0.00,meteohub,2013-10-13 07:14:00,
2013-10-13 02:19:00,62.1,50.5,28.65,NE,45,8.0,9.0,66,0.00,,,0.00,meteohub,2013-10-13 07:19:00,
2013-10-13 02:24:00,62.1,50.5,28.65,NE,45,7.0,9.0,66,0.00,,,0.00,meteohub,2013-10-13 07:24:00,
2013-10-13 02:29:00,62.1,50.5,28.66,North,0,1.0,9.0,66,0.00,,,0.00,meteohub,2013-10-13 07:29:00,
2013-10-13 02:34:00,62.2,50.7,28.66,North,0,11.0,11.0,66,0.00,,,0.00,meteohub,2013-10-13 07:34:00,
2013-10-13 02:39:00,62.1,50.5,28.66,North,0,8.0,11.0,66,0.00,,,0.00,meteohub,2013-10-13 07:39:00,
2013-10-13 02:44:00,62.1,50.5,28.65,NE,45,8.0,12.0,66,0.00,,,0.00,meteohub,2013-10-13 07:44:00,
2013-10-13 02:49:00,62.2,51.1,28.66,East,90,2.0,12.0,67,0.00,,,0.00,meteohub,2013-10-13 07:49:00,
2013-10-13 02:54:00,62.1,50.9,28.66,East,90,1.0,12.0,67,0.00,,,0.00,meteohub,2013-10-13 07:54:00,
2013-10-13 02:59:00,62.2,51.1,28.66,NW,315,2.0,10.0,67,0.00,,,0.00,meteohub,2013-10-13 07:59:00,
2013-10-13 03:04:00,62.1,50.9,28.66,NE,45,2.0,10.0,67,0.00,,,0.00,meteohub,2013-10-13 08:04:00,
2013-10-13 03:09:00,61.9,50.7,28.66,NE,45,4.0,10.0,67,0.00,,,0.00,meteohub,2013-10-13 08:09:00,
2013-10-13 03:14:00,61.9,50.7,28.66,East,90,4.0,10.0,67,0.00,,,0.00,meteohub,2013-10-13 08:14:00,
2013-10-13 03:19:00,61.9,50.7,28.65,East,90,5.0,9.0,67,0.00,,,0.00,meteohub,2013-10-13 08:19:00,
2013-10-13 03:24:00,61.7,50.7,28.66,NE,45,4.0,9.0,67,0.00,,,0.00,meteohub,2013-10-13 08:24:00,
2013-10-13 03:29:00,61.9,51.3,28.66,NE,45,9.0,13.0,68,0.00,,,0.00,meteohub,2013-10-13 08:29:00,
2013-10-13 03:34:00,61.5,50.9,28.65,North,0,11.0,13.0,68,0.00,,,0.00,meteohub,2013-10-13 08:34:00,
2013-10-13 03:39:00,61.9,51.3,28.65,East,90,3.0,13.0,68,0.00,,,0.00,meteohub,2013-10-13 08:39:00,
2013-10-13 03:44:00,61.5,50.9,28.65,North,0,6.0,17.0,68,0.00,,,0.00,meteohub,2013-10-13 08:44:00,
2013-10-13 03:49:00,61.3,50.7,28.65,NE,45,8.0,17.0,68,0.00,,,0.00,meteohub,2013-10-13 08:49:00,
2013-10-13 03:54:00,61.7,51.1,28.66,North,0,4.0,13.0,68,0.00,,,0.00,meteohub,2013-10-13 08:54:00,
2013-10-13 03:59:00,61.5,50.9,28.65,North,0,7.0,11.0,68,0.00,,,0.00,meteohub,2013-10-13 08:59:00,
2013-10-13 04:04:00,61.7,51.4,28.65,NE,45,11.0,12.0,69,0.00,,,0.00,meteohub,2013-10-13 09:04:00,
2013-10-13 04:09:00,61.7,51.4,28.65,NE,45,8.0,12.0,69,0.00,,,0.00,meteohub,2013-10-13 09:09:00,
2013-10-13 04:14:00,61.5,51.3,28.65,East,90,8.0,12.0,69,0.00,,,0.00,meteohub,2013-10-13 09:14:00,
2013-10-13 04:19:00,62.1,51.8,28.66,SSE,158,4.0,11.0,69,0.00,,,0.00,meteohub,2013-10-13 09:19:00,
2013-10-13 04:24:00,62.1,51.8,28.66,NE,45,11.0,11.0,69,0.00,,,0.00,meteohub,2013-10-13 09:24:00,
2013-10-13 04:29:00,62.1,51.8,28.66,NE,45,7.0,11.0,69,0.00,,,0.00,meteohub,2013-10-13 09:29:00,
2013-10-13 04:34:00,61.7,51.4,28.66,NE,45,9.0,11.0,69,0.00,,,0.00,meteohub,2013-10-13 09:34:00,
2013-10-13 04:40:00,61.9,51.6,28.66,NE,45,2.0,11.0,69,0.00,,,0.00,meteohub,2013-10-13 09:40:00,
2013-10-13 04:45:00,61.7,51.8,28.66,NE,45,4.0,12.0,70,0.00,,,0.00,meteohub,2013-10-13 09:45:00,
2013-10-13 04:50:00,61.9,51.6,28.66,NE,45,6.0,12.0,69,0.00,,,0.00,meteohub,2013-10-13 09:50:00,
2013-10-13 04:55:00,61.9,51.6,28.66,NE,45,8.0,12.0,69,0.00,,,0.00,meteohub,2013-10-13 09:55:00,
2013-10-13 05:00:00,61.7,51.4,28.66,North,0,11.0,11.0,69,0.00,,,0.00,meteohub,2013-10-13 10:00:00,
2013-10-13 05:05:00,62.1,52.2,28.66,North,0,10.0,11.0,70,0.00,,,0.00,meteohub,2013-10-13 10:05:00,
2013-10-13 05:10:00,61.9,52.3,28.66,North,0,4.0,11.0,71,0.00,,,0.00,meteohub,2013-10-13 10:10:00,
2013-10-13 05:15:00,61.9,52.7,28.66,North,0,8.0,11.0,72,0.00,,,0.00,meteohub,2013-10-13 10:15:00,
2013-10-13 05:20:00,61.9,53.1,28.66,NE,45,11.0,15.0,73,0.00,,,0.00,meteohub,2013-10-13 10:20:00,
2013-10-13 05:25:00,61.7,52.9,28.66,NE,45,10.0,15.0,73,0.00,,,0.00,meteohub,2013-10-13 10:25:00,
2013-10-13 05:30:00,61.9,53.4,28.66,NE,45,9.0,15.0,74,0.00,,,0.00,meteohub,2013-10-13 10:30:00,
2013-10-13 05:35:00,61.7,53.8,28.66,North,0,4.0,11.0,75,0.00,,,0.00,meteohub,2013-10-13 10:35:00,
2013-10-13 05:40:00,61.9,54.3,28.66,North,0,10.0,11.0,76,0.00,,,0.00,meteohub,2013-10-13 10:40:00,
2013-10-13 05:45:00,61.9,54.7,28.66,NE,45,6.0,11.0,77,0.00,,,0.00,meteohub,2013-10-13 10:45:00,
2013-10-13 05:50:00,61.7,54.9,28.66,NE,45,6.0,11.0,78,0.00,,,0.00,meteohub,2013-10-13 10:50:00,
2013-10-13 05:55:00,61.7,55.0,28.66,East,90,9.0,11.0,79,0.00,,,0.00,meteohub,2013-10-13 10:55:00,
2013-10-13 06:00:00,61.9,55.2,28.66,North,0,8.0,11.0,79,0.00,,,0.00,meteohub,2013-10-13 11:00:00,
2013-10-13 06:05:00,61.7,55.0,28.66,NE,45,6.0,10.0,79,0.00,,,0.00,meteohub,2013-10-13 11:05:00,
2013-10-13 06:10:00,61.9,55.2,28.66,WNW,293,4.0,12.0,79,0.00,,,0.00,meteohub,2013-10-13 11:10:00,
2013-10-13 06:15:00,61.9,54.9,28.66,NE,45,8.0,12.0,78,0.00,,,0.00,meteohub,2013-10-13 11:15:00,
2013-10-13 06:20:00,61.9,54.9,28.66,North,0,8.0,12.0,78,0.00,,,0.00,meteohub,2013-10-13 11:20:00,
2013-10-13 06:25:00,61.9,54.9,28.66,North,0,6.0,8.0,78,0.00,,,0.00,meteohub,2013-10-13 11:25:00,
2013-10-13 06:30:00,61.9,54.9,28.66,East,90,10.0,11.0,78,0.00,,,0.00,meteohub,2013-10-13 11:30:00,
2013-10-13 06:35:00,61.9,54.9,28.65,North,0,8.0,11.0,78,0.00,,,0.00,meteohub,2013-10-13 11:35:00,
2013-10-13 06:40:00,61.7,55.0,28.66,NE,45,11.0,11.0,79,0.00,,,0.00,meteohub,2013-10-13 11:40:00,
2013-10-13 06:45:00,61.7,55.0,28.66,East,90,9.0,11.0,79,0.00,,,0.00,meteohub,2013-10-13 11:45:00,
2013-10-13 06:50:00,61.7,55.0,28.66,NE,45,2.0,11.0,79,0.00,,,0.00,meteohub,2013-10-13 11:50:00,
2013-10-13 06:55:00,61.9,55.6,28.66,East,90,6.0,11.0,80,0.00,,,0.00,meteohub,2013-10-13 11:55:00,
2013-10-13 07:01:00,61.5,55.2,28.66,East,90,7.0,11.0,80,0.00,,,0.00,meteohub,2013-10-13 12:01:00,
2013-10-13 07:06:00,61.5,55.2,28.66,SE,135,5.0,11.0,80,0.00,,,0.00,meteohub,2013-10-13 12:06:00,
2013-10-13 07:11:00,61.7,55.4,28.66,NE,45,9.0,12.0,80,0.00,,,0.00,meteohub,2013-10-13 12:11:00,
2013-10-13 07:16:00,61.5,55.2,28.66,NE,45,12.0,12.0,80,0.00,,,0.00,meteohub,2013-10-13 12:16:00,
2013-10-13 07:21:00,61.9,55.9,28.67,NE,45,4.0,12.0,81,0.00,,,0.00,meteohub,2013-10-13 12:21:00,
2013-10-13 07:26:00,61.7,55.8,28.67,NE,45,8.0,12.0,81,0.00,,,0.00,meteohub,2013-10-13 12:26:00,
2013-10-13 07:31:00,61.9,55.9,28.67,NW,315,6.0,12.0,81,0.00,,,0.00,meteohub,2013-10-13 12:31:00,
2013-10-13 07:36:00,61.7,55.8,28.68,North,0,8.0,12.0,81,0.00,,,0.00,meteohub,2013-10-13 12:36:00,
2013-10-13 07:40:00,61.7,55.8,28.68,NE,45,5.0,12.0,81,0.00,,,0.00,meteohub,2013-10-13 12:40:00,
2013-10-13 07:46:00,61.5,55.6,28.68,North,0,4.0,12.0,81,0.00,,,0.00,meteohub,2013-10-13 12:46:00,
2013-10-13 07:51:00,61.7,55.8,28.68,NW,315,8.0,12.0,81,0.00,,,0.00,meteohub,2013-10-13 12:51:00,
2013-10-13 07:56:00,61.5,55.6,28.69,East,90,3.0,11.0,81,0.00,,,0.00,meteohub,2013-10-13 12:56:00,
2013-10-13 08:01:00,61.9,55.9,28.69,SE,135,1.0,11.0,81,0.00,,,0.00,meteohub,2013-10-13 13:01:00,
2013-10-13 08:06:00,61.7,55.8,28.69,North,0,6.0,11.0,81,0.00,,,0.00,meteohub,2013-10-13 13:06:00,
2013-10-13 08:11:00,61.7,55.8,28.70,SE,135,4.0,10.0,81,0.00,,,0.00,meteohub,2013-10-13 13:11:00,
2013-10-13 08:16:00,62.1,56.1,28.70,North,0,4.0,7.0,81,0.00,,,0.00,meteohub,2013-10-13 13:16:00,
2013-10-13 08:21:00,62.1,56.1,28.70,NE,45,5.0,7.0,81,0.00,,,0.00,meteohub,2013-10-13 13:21:00,
2013-10-13 08:26:00,62.2,56.3,28.71,East,90,5.0,7.0,81,0.00,,,0.00,meteohub,2013-10-13 13:26:00,
2013-10-13 08:31:00,62.4,56.5,28.71,NE,45,5.0,8.0,81,0.00,,,0.00,meteohub,2013-10-13 13:31:00,
2013-10-13 08:36:00,62.6,56.3,28.71,NE,45,1.0,8.0,80,0.00,,,0.00,meteohub,2013-10-13 13:36:00,
2013-10-13 08:41:00,62.8,56.5,28.71,North,0,2.0,7.0,80,0.00,,,0.00,meteohub,2013-10-13 13:41:00,
2013-10-13 08:46:00,62.8,56.5,28.70,East,90,7.0,7.0,80,0.00,,,0.00,meteohub,2013-10-13 13:46:00,
2013-10-13 08:51:00,63.0,56.7,28.71,NE,45,2.0,7.0,80,0.00,,,0.00,meteohub,2013-10-13 13:51:00,
2013-10-13 08:56:00,63.0,56.7,28.71,NE,45,1.0,7.0,80,0.00,,,0.00,meteohub,2013-10-13 13:56:00,
2013-10-13 09:01:00,63.0,56.7,28.71,NE,45,2.0,7.0,80,0.00,,,0.00,meteohub,2013-10-13 14:01:00,
2013-10-13 09:06:00,63.1,56.8,28.72,East,90,1.0,7.0,80,0.00,,,0.00,meteohub,2013-10-13 14:06:00,
2013-10-13 09:11:00,63.3,57.0,28.72,NE,45,1.0,7.0,80,0.00,,,0.00,meteohub,2013-10-13 14:11:00,
2013-10-13 09:16:00,63.1,56.8,28.72,NE,45,2.0,7.0,80,0.00,,,0.00,meteohub,2013-10-13 14:16:00,
2013-10-13 09:21:00,63.3,57.0,28.73,NE,45,5.0,6.0,80,0.00,,,0.00,meteohub,2013-10-13 14:21:00,
2013-10-13 09:26:00,63.3,57.0,28.73,North,0,5.0,6.0,80,0.00,,,0.00,meteohub,2013-10-13 14:26:00,
2013-10-13 09:31:00,63.1,56.8,28.73,North,0,2.0,10.0,80,0.00,,,0.00,meteohub,2013-10-13 14:31:00,
2013-10-13 09:36:00,63.3,57.0,28.74,NE,45,1.0,10.0,80,0.00,,,0.00,meteohub,2013-10-13 14:36:00,
2013-10-13 09:41:00,63.5,57.2,28.74,East,90,6.0,10.0,80,0.00,,,0.00,meteohub,2013-10-13 14:41:00,
2013-10-13 09:46:00,63.7,57.4,28.74,East,90,1.0,6.0,80,0.00,,,0.00,meteohub,2013-10-13 14:46:00,
2013-10-13 09:51:00,64.0,57.4,28.73,NE,45,5.0,6.0,79,0.00,,,0.00,meteohub,2013-10-13 14:51:00,
2013-10-13 09:56:00,64.0,57.4,28.74,NE,45,4.0,8.0,79,0.00,,,0.00,meteohub,2013-10-13 14:56:00,
2013-10-13 10:01:00,64.2,57.6,28.74,SE,135,1.0,8.0,79,0.00,,,0.00,meteohub,2013-10-13 15:01:00,
2013-10-13 10:06:00,64.6,57.6,28.74,NE,45,1.0,8.0,78,0.00,,,0.00,meteohub,2013-10-13 15:06:00,
2013-10-13 10:11:00,64.4,57.7,28.74,NE,45,5.0,8.0,79,0.00,,,0.00,meteohub,2013-10-13 15:11:00,
2013-10-13 10:16:00,64.4,57.7,28.74,NE,45,4.0,6.0,79,0.00,,,0.00,meteohub,2013-10-13 15:16:00,
2013-10-13 10:21:00,64.6,57.9,28.75,North,0,1.0,6.0,79,0.00,,,0.00,meteohub,2013-10-13 15:21:00,
2013-10-13 10:26:00,64.6,57.9,28.75,NE,45,4.0,6.0,79,0.00,,,0.00,meteohub,2013-10-13 15:26:00,
2013-10-13 10:31:00,64.6,57.9,28.75,North,0,1.0,4.0,79,0.00,,,0.00,meteohub,2013-10-13 15:31:00,
2013-10-13 10:36:00,64.6,57.9,28.75,WNW,293,2.0,4.0,79,0.00,,,0.00,meteohub,2013-10-13 15:36:00,
2013-10-13 10:41:00,64.6,57.9,28.76,West,270,4.0,4.0,79,0.00,,,0.00,meteohub,2013-10-13 15:41:00,
2013-10-13 10:46:00,64.8,57.7,28.76,NW,315,10.0,10.0,78,0.00,,,0.00,meteohub,2013-10-13 15:46:00,
2013-10-13 10:51:00,64.4,57.7,28.76,West,270,3.0,10.0,79,0.00,,,0.00,meteohub,2013-10-13 15:51:00,
2013-10-13 10:56:00,64.4,57.7,28.77,West,270,6.0,10.0,79,0.00,,,0.00,meteohub,2013-10-13 15:56:00,
2013-10-13 11:01:00,64.2,57.6,28.77,West,270,4.0,10.0,79,0.00,,,0.00,meteohub,2013-10-13 16:01:00,
2013-10-13 11:06:00,64.0,56.3,28.77,West,270,7.0,8.0,76,0.00,,,0.00,meteohub,2013-10-13 16:06:00,
2013-10-13 11:11:00,63.9,56.1,28.77,North,0,4.0,8.0,76,0.00,,,0.00,meteohub,2013-10-13 16:11:00,
2013-10-13 11:16:00,63.7,56.3,28.77,West,270,4.0,9.0,77,0.00,,,0.00,meteohub,2013-10-13 16:16:00,
2013-10-13 11:21:00,63.3,56.3,28.76,North,0,4.0,9.0,78,0.00,,,0.00,meteohub,2013-10-13 16:21:00,
2013-10-13 11:26:00,63.3,56.3,28.76,North,0,6.0,9.0,78,0.00,,,0.00,meteohub,2013-10-13 16:26:00,
2013-10-13 11:31:00,63.7,56.3,28.76,North,0,1.0,9.0,77,0.00,,,0.00,meteohub,2013-10-13 16:31:00,
2013-10-13 11:36:00,63.7,55.9,28.75,NE,45,1.0,6.0,76,0.00,,,0.00,meteohub,2013-10-13 16:36:00,
2013-10-13 11:41:00,63.9,56.1,28.75,North,0,1.0,6.0,76,0.00,,,0.00,meteohub,2013-10-13 16:41:00,
2013-10-13 11:46:00,64.4,56.3,28.75,NE,45,2.0,6.0,75,0.00,,,0.00,meteohub,2013-10-13 16:46:00,
2013-10-13 11:51:00,64.8,56.3,28.74,NE,45,7.0,7.0,74,0.00,,,0.00,meteohub,2013-10-13 16:51:00,
2013-10-13 11:56:00,64.8,56.7,28.74,NE,45,8.0,8.0,75,0.00,,,0.00,meteohub,2013-10-13 16:56:00,
2013-10-13 12:01:00,65.7,57.6,28.74,NE,45,5.0,8.0,75,0.00,,,0.00,meteohub,2013-10-13 17:01:00,
2013-10-13 12:06:00,66.6,58.1,28.73,NE,45,8.0,8.0,74,0.00,,,0.00,meteohub,2013-10-13 17:06:00,
2013-10-13 12:11:00,66.9,57.9,28.73,East,90,1.0,11.0,73,0.00,,,0.00,meteohub,2013-10-13 17:11:00,
2013-10-13 12:16:00,67.3,58.3,28.72,NE,45,8.0,11.0,73,0.00,,,0.00,meteohub,2013-10-13 17:16:00,
2013-10-13 12:21:00,67.5,58.8,28.71,East,90,6.0,11.0,74,0.00,,,0.00,meteohub,2013-10-13 17:21:00,
2013-10-13 12:26:00,67.5,59.2,28.71,SE,135,8.0,12.0,75,0.00,,,0.00,meteohub,2013-10-13 17:26:00,
2013-10-13 12:31:00,68.0,59.7,28.71,North,0,8.0,12.0,75,0.00,,,0.00,meteohub,2013-10-13 17:31:00,
2013-10-13 12:36:00,67.6,59.4,28.70,East,90,8.0,10.0,75,0.00,,,0.00,meteohub,2013-10-13 17:36:00,
2013-10-13 12:41:00,68.0,59.7,28.70,SE,135,4.0,12.0,75,0.00,,,0.00,meteohub,2013-10-13 17:41:00,
2013-10-13 12:46:00,68.2,59.9,28.69,East,90,9.0,12.0,75,0.00,,,0.00,meteohub,2013-10-13 17:46:00,
2013-10-13 12:51:00,68.4,60.1,28.69,East,90,4.0,9.0,75,0.00,,,0.00,meteohub,2013-10-13 17:51:00,
2013-10-13 12:56:00,68.9,60.6,28.69,East,90,5.0,10.0,75,0.00,,,0.00,meteohub,2013-10-13 17:56:00,
2013-10-13 13:01:00,68.9,60.6,28.68,SE,135,8.0,15.0,75,0.00,,,0.00,meteohub,2013-10-13 18:01:00,
2013-10-13 13:06:00,69.4,61.2,28.68,North,0,4.0,15.0,75,0.00,,,0.00,meteohub,2013-10-13 18:06:00,
2013-10-13 13:11:00,70.5,62.2,28.67,South,180,4.0,15.0,75,0.00,,,0.00,meteohub,2013-10-13 18:11:00,
2013-10-13 13:17:00,70.9,61.9,28.68,NE,45,8.0,12.0,73,0.00,,,0.00,meteohub,2013-10-13 18:17:00,
2013-10-13 13:22:00,71.2,62.1,28.67,NW,315,11.0,13.0,73,0.00,,,0.00,meteohub,2013-10-13 18:22:00,
2013-10-13 13:27:00,71.1,62.4,28.67,NE,45,8.0,21.0,74,0.00,,,0.00,meteohub,2013-10-13 18:27:00,
2013-10-13 13:32:00,71.1,62.4,28.66,East,90,16.0,21.0,74,0.00,,,0.00,meteohub,2013-10-13 18:32:00,
2013-10-13 13:37:00,71.6,63.7,28.66,East,90,11.0,21.0,76,0.00,,,0.00,meteohub,2013-10-13 18:37:00,
2013-10-13 13:42:00,71.6,64.0,28.66,East,90,8.0,17.0,77,0.00,,,0.00,meteohub,2013-10-13 18:42:00,
2013-10-13 13:47:00,72.0,64.4,28.65,North,0,8.0,17.0,77,0.00,,,0.00,meteohub,2013-10-13 18:47:00,
2013-10-13 13:52:00,72.5,64.6,28.65,East,90,13.0,17.0,76,0.00,,,0.00,meteohub,2013-10-13 18:52:00,
2013-10-13 13:57:00,72.7,64.2,28.65,ESE,113,13.0,18.0,75,0.00,,,0.00,meteohub,2013-10-13 18:57:00,
2013-10-13 14:02:00,73.0,64.2,28.65,East,90,15.0,18.0,74,0.00,,,0.00,meteohub,2013-10-13 19:02:00,
2013-10-13 14:07:00,73.4,63.9,28.65,East,90,17.0,20.0,72,0.00,,,0.00,meteohub,2013-10-13 19:07:00,
2013-10-13 14:12:00,73.9,63.9,28.64,SE,135,7.0,20.0,71,0.00,,,0.00,meteohub,2013-10-13 19:12:00,
2013-10-13 14:17:00,74.3,63.9,28.65,East,90,17.0,19.0,70,0.00,,,0.00,meteohub,2013-10-13 19:17:00,
2013-10-13 14:22:00,74.1,63.7,28.64,East,90,11.0,19.0,70,0.00,,,0.00,meteohub,2013-10-13 19:22:00,
2013-10-13 14:27:00,74.1,63.7,28.65,East,90,17.0,17.0,70,0.00,,,0.00,meteohub,2013-10-13 19:27:00,
2013-10-13 14:32:00,74.1,63.3,28.65,East,90,11.0,17.0,69,0.00,,,0.00,meteohub,2013-10-13 19:32:00,
2013-10-13 14:37:00,74.3,63.5,28.65,East,90,13.0,17.0,69,0.00,,,0.00,meteohub,2013-10-13 19:37:00,
2013-10-13 14:42:00,73.9,63.1,28.65,SE,135,15.0,17.0,69,0.00,,,0.00,meteohub,2013-10-13 19:42:00,
2013-10-13 14:47:00,73.8,63.3,28.64,East,90,12.0,17.0,70,0.00,,,0.00,meteohub,2013-10-13 19:47:00,
2013-10-13 14:52:00,73.8,63.3,28.64,SE,135,15.0,17.0,70,0.00,,,0.00,meteohub,2013-10-13 19:52:00,
2013-10-13 14:57:00,73.6,63.1,28.65,East,90,8.0,15.0,70,0.00,,,0.00,meteohub,2013-10-13 19:57:00,
2013-10-13 15:02:00,73.4,63.5,28.64,SE,135,9.0,17.0,71,0.00,,,0.00,meteohub,2013-10-13 20:02:00,
2013-10-13 15:07:00,73.2,62.8,28.64,East,90,10.0,17.0,70,0.00,,,0.00,meteohub,2013-10-13 20:07:00,
2013-10-13 15:12:00,73.2,62.8,28.64,SE,135,12.0,17.0,70,0.00,,,0.00,meteohub,2013-10-13 20:12:00,
2013-10-13 15:17:00,73.0,62.6,28.64,SE,135,15.0,15.0,70,0.00,,,0.00,meteohub,2013-10-13 20:17:00,
2013-10-13 15:22:00,73.4,63.0,28.64,East,90,13.0,15.0,70,0.00,,,0.00,meteohub,2013-10-13 20:22:00,
2013-10-13 15:27:00,73.4,63.0,28.63,SSE,158,8.0,15.0,70,0.00,,,0.00,meteohub,2013-10-13 20:27:00,
2013-10-13 15:32:00,73.2,63.3,28.63,East,90,8.0,15.0,71,0.00,,,0.00,meteohub,2013-10-13 20:32:00,
2013-10-13 15:37:00,73.2,63.3,28.63,East,90,10.0,15.0,71,0.00,,,0.00,meteohub,2013-10-13 20:37:00,
2013-10-13 15:42:00,73.4,63.5,28.63,NE,45,8.0,15.0,71,0.00,,,0.00,meteohub,2013-10-13 20:42:00,
2013-10-13 15:47:00,73.4,63.5,28.63,East,90,5.0,15.0,71,0.00,,,0.00,meteohub,2013-10-13 20:47:00,
2013-10-13 15:52:00,73.6,63.7,28.64,SE,135,8.0,11.0,71,0.00,,,0.00,meteohub,2013-10-13 20:52:00,
2013-10-13 15:57:00,73.6,63.7,28.64,East,90,4.0,11.0,71,0.00,,,0.00,meteohub,2013-10-13 20:57:00,
2013-10-13 16:02:00,73.8,63.7,28.64,East,90,11.0,11.0,71,0.00,,,0.00,meteohub,2013-10-13 21:02:00,
2013-10-13 16:07:00,73.8,63.7,28.64,East,90,1.0,11.0,71,0.00,,,0.00,meteohub,2013-10-13 21:07:00,
2013-10-13 16:12:00,73.8,63.3,28.64,East,90,6.0,11.0,70,0.00,,,0.00,meteohub,2013-10-13 21:12:00,
2013-10-13 16:17:00,73.9,63.5,28.64,East,90,9.0,11.0,70,0.00,,,0.00,meteohub,2013-10-13 21:17:00,
2013-10-13 16:22:00,73.8,63.3,28.65,East,90,8.0,12.0,70,0.00,,,0.00,meteohub,2013-10-13 21:22:00,
2013-10-13 16:27:00,73.8,63.7,28.65,East,90,9.0,12.0,71,0.00,,,0.00,meteohub,2013-10-13 21:27:00,
2013-10-13 16:32:00,73.6,64.0,28.64,East,90,6.0,12.0,72,0.00,,,0.00,meteohub,2013-10-13 21:32:00,
2013-10-13 16:37:00,73.2,63.7,28.64,ENE,68,2.0,9.0,72,0.00,,,0.00,meteohub,2013-10-13 21:37:00,
2013-10-13 16:42:00,73.4,63.9,28.65,SSE,158,8.0,9.0,72,0.00,,,0.00,meteohub,2013-10-13 21:42:00,
2013-10-13 16:47:00,73.4,64.2,28.64,East,90,1.0,8.0,73,0.00,,,0.00,meteohub,2013-10-13 21:47:00,
2013-10-13 16:52:00,73.0,63.9,28.65,East,90,8.0,8.0,73,0.00,,,0.00,meteohub,2013-10-13 21:52:00,
2013-10-13 16:57:00,73.0,64.2,28.64,East,90,1.0,10.0,74,0.00,,,0.00,meteohub,2013-10-13 21:57:00,
2013-10-13 17:03:00,73.0,64.2,28.64,East,90,6.0,10.0,74,0.00,,,0.00,meteohub,2013-10-13 22:03:00,
2013-10-13 17:08:00,72.9,64.0,28.64,East,90,3.0,10.0,74,0.00,,,0.00,meteohub,2013-10-13 22:08:00,
2013-10-13 17:13:00,73.2,64.4,28.64,East,90,7.0,8.0,74,0.00,,,0.00,meteohub,2013-10-13 22:13:00,
2013-10-13 17:18:00,72.9,64.0,28.64,East,90,4.0,8.0,74,0.00,,,0.00,meteohub,2013-10-13 22:18:00,
2013-10-13 17:23:00,72.9,64.4,28.64,SE,135,1.0,9.0,75,0.00,,,0.00,meteohub,2013-10-13 22:23:00,
2013-10-13 17:28:00,73.0,64.6,28.64,SE,135,6.0,9.0,75,0.00,,,0.00,meteohub,2013-10-13 22:28:00,
2013-10-13 17:33:00,72.7,64.2,28.64,East,90,1.0,8.0,75,0.00,,,0.00,meteohub,2013-10-13 22:33:00,
2013-10-13 17:38:00,72.5,64.6,28.64,SE,135,1.0,8.0,76,0.00,,,0.00,meteohub,2013-10-13 22:38:00,
2013-10-13 17:43:00,72.5,64.6,28.64,East,90,8.0,8.0,76,0.00,,,0.00,meteohub,2013-10-13 22:43:00,
2013-10-13 17:48:00,72.1,64.6,28.64,East,90,2.0,8.0,77,0.00,,,0.00,meteohub,2013-10-13 22:48:00,
2013-10-13 17:53:00,72.1,64.6,28.64,North,0,4.0,8.0,77,0.00,,,0.00,meteohub,2013-10-13 22:53:00,
2013-10-13 17:58:00,72.0,64.8,28.64,East,90,1.0,8.0,78,0.00,,,0.00,meteohub,2013-10-13 22:58:00,
2013-10-13 18:03:00,71.8,64.6,28.64,East,90,1.0,5.0,78,0.00,,,0.00,meteohub,2013-10-13 23:03:00,
2013-10-13 18:08:00,71.6,64.4,28.65,NE,45,1.0,5.0,78,0.00,,,0.00,meteohub,2013-10-13 23:08:00,
2013-10-13 18:13:00,71.6,64.4,28.65,East,90,1.0,5.0,78,0.00,,,0.00,meteohub,2013-10-13 23:13:00,
2013-10-13 18:18:00,71.4,64.6,28.66,East,90,1.0,1.0,79,0.00,,,0.00,meteohub,2013-10-13 23:18:00,
2013-10-13 18:23:00,71.4,64.9,28.66,East,90,1.0,1.0,80,0.00,,,0.00,meteohub,2013-10-13 23:23:00,
2013-10-13 18:28:00,71.1,64.9,28.66,East,90,1.0,1.0,81,0.00,,,0.00,meteohub,2013-10-13 23:28:00,
2013-10-13 18:33:00,71.1,64.9,28.66,NE,45,7.0,7.0,81,0.00,,,0.00,meteohub,2013-10-13 23:33:00,
2013-10-13 18:38:00,70.7,64.9,28.66,East,90,1.0,5.0,82,0.00,,,0.00,meteohub,2013-10-13 23:38:00,
2013-10-13 18:43:00,70.7,64.9,28.66,East,90,1.0,8.0,82,0.00,,,0.00,meteohub,2013-10-13 23:43:00,
2013-10-13 18:48:00,70.5,65.1,28.66,East,90,1.0,8.0,83,0.00,,,0.00,meteohub,2013-10-13 23:48:00,
2013-10-13 18:53:00,70.5,65.1,28.66,East,90,1.0,8.0,83,0.00,,,0.00,meteohub,2013-10-13 23:53:00,
2013-10-13 18:58:00,70.5,65.5,28.66,East,90,0.0,7.0,84,0.00,,,0.00,meteohub,2013-10-13 23:58:00,
2013-10-13 19:03:00,70.2,65.1,28.67,East,90,1.0,7.0,84,0.00,,,0.00,meteohub,2013-10-14 00:03:00,
2013-10-13 19:08:00,70.0,64.9,28.66,East,90,2.0,7.0,84,0.00,,,0.00,meteohub,2013-10-14 00:08:00,
2013-10-13 19:13:00,70.2,65.5,28.67,SE,135,1.0,7.0,85,0.00,,,0.00,meteohub,2013-10-14 00:13:00,
2013-10-13 19:18:00,70.0,65.3,28.67,NE,45,1.0,2.0,85,0.00,,,0.00,meteohub,2013-10-14 00:18:00,
2013-10-13 19:23:00,69.8,65.5,28.67,East,90,1.0,2.0,86,0.00,,,0.00,meteohub,2013-10-14 00:23:00,
2013-10-13 19:28:00,69.8,65.5,28.67,SE,135,1.0,1.0,86,0.00,,,0.00,meteohub,2013-10-14 00:28:00,
2013-10-13 19:33:00,69.8,65.8,28.67,NE,45,2.0,2.0,87,0.00,,,0.00,meteohub,2013-10-14 00:33:00,
2013-10-13 19:38:00,69.6,65.7,28.68,East,90,4.0,4.0,87,0.00,,,0.00,meteohub,2013-10-14 00:38:00,
2013-10-13 19:43:00,69.4,65.5,28.68,East,90,1.0,5.0,87,0.00,,,0.00,meteohub,2013-10-14 00:43:00,
2013-10-13 19:48:00,69.4,65.7,28.68,SE,135,1.0,5.0,88,0.00,,,0.00,meteohub,2013-10-14 00:48:00,
2013-10-13 19:53:00,69.3,65.5,28.68,East,90,0.0,5.0,88,0.00,,,0.00,meteohub,2013-10-14 00:53:00,
2013-10-13 19:59:00,69.4,65.7,28.68,East,90,0.0,1.0,88,0.00,,,0.00,meteohub,2013-10-14 00:59:00,
2013-10-13 20:04:00,69.3,65.5,28.68,East,90,0.0,1.0,88,0.00,,,0.00,meteohub,2013-10-14 01:04:00,
2013-10-13 20:09:00,69.4,65.7,28.68,East,90,1.0,1.0,88,0.00,,,0.00,meteohub,2013-10-14 01:09:00,
2013-10-13 20:14:00,69.3,65.5,28.68,East,90,1.0,1.0,88,0.00,,,0.00,meteohub,2013-10-14 01:14:00,
2013-10-13 20:19:00,69.3,65.8,28.69,East,90,0.0,2.0,89,0.00,,,0.00,meteohub,2013-10-14 01:19:00,
2013-10-13 20:24:00,69.1,65.7,28.68,East,90,1.0,2.0,89,0.00,,,0.00,meteohub,2013-10-14 01:24:00,
2013-10-13 20:29:00,69.1,65.7,28.68,East,90,1.0,2.0,89,0.00,,,0.00,meteohub,2013-10-14 01:29:00,
2013-10-13 20:34:00,69.3,65.8,28.68,East,90,1.0,1.0,89,0.00,,,0.00,meteohub,2013-10-14 01:34:00,
2013-10-13 20:39:00,69.1,65.7,28.67,East,90,0.0,2.0,89,0.00,,,0.00,meteohub,2013-10-14 01:39:00,
2013-10-13 20:44:00,68.9,65.8,28.67,East,90,1.0,2.0,90,0.00,,,0.00,meteohub,2013-10-14 01:44:00,
2013-10-13 20:49:00,69.1,66.0,28.67,North,0,1.0,1.0,90,0.00,,,0.00,meteohub,2013-10-14 01:49:00,
2013-10-13 20:54:00,68.9,66.2,28.66,NE,45,1.0,1.0,91,0.00,,,0.00,meteohub,2013-10-14 01:54:00,
2013-10-13 20:59:00,68.9,66.2,28.66,East,90,1.0,1.0,91,0.00,,,0.00,meteohub,2013-10-14 01:59:00,
2013-10-13 21:04:00,68.7,66.0,28.66,NE,45,1.0,2.0,91,0.00,,,0.00,meteohub,2013-10-14 02:04:00,
2013-10-13 21:09:00,68.9,66.2,28.66,East,90,1.0,2.0,91,0.00,,,0.00,meteohub,2013-10-14 02:09:00,
2013-10-13 21:14:00,68.5,66.2,28.66,East,90,1.0,2.0,92,0.00,,,0.00,meteohub,2013-10-14 02:14:00,
2013-10-13 21:19:00,68.5,66.2,28.66,East,90,1.0,2.0,92,0.00,,,0.00,meteohub,2013-10-14 02:19:00,
2013-10-13 21:24:00,68.5,66.4,28.66,SE,135,1.0,2.0,93,0.00,,,0.00,meteohub,2013-10-14 02:24:00,
2013-10-13 21:29:00,68.7,66.6,28.65,East,90,4.0,4.0,93,0.00,,,0.00,meteohub,2013-10-14 02:29:00,
2013-10-13 21:34:00,68.7,66.6,28.65,NE,45,1.0,8.0,93,0.00,,,0.00,meteohub,2013-10-14 02:34:00,
2013-10-13 21:39:00,68.7,66.6,28.65,SE,135,1.0,8.0,93,0.00,,,0.00,meteohub,2013-10-14 02:39:00,
2013-10-13 21:44:00,68.5,66.7,28.64,East,90,8.0,8.0,94,0.00,,,0.00,meteohub,2013-10-14 02:44:00,
2013-10-13 21:49:00,68.5,66.7,28.64,NE,45,5.0,12.0,94,0.00,,,0.00,meteohub,2013-10-14 02:49:00,
2013-10-13 21:54:00,68.5,66.7,28.64,East,90,8.0,12.0,94,0.00,,,0.00,meteohub,2013-10-14 02:54:00,
2013-10-13 21:59:00,68.4,66.9,28.64,SE,135,1.0,12.0,95,0.00,,,0.00,meteohub,2013-10-14 02:59:00,
2013-10-13 22:04:00,68.4,66.9,28.64,SE,135,8.0,9.0,95,0.00,,,0.00,meteohub,2013-10-14 03:04:00,
2013-10-13 22:09:00,68.4,67.1,28.63,East,90,9.0,11.0,96,0.00,,,0.00,meteohub,2013-10-14 03:09:00,
2013-10-13 22:14:00,68.5,67.3,28.63,East,90,12.0,12.0,96,0.00,,,0.00,meteohub,2013-10-14 03:14:00,
2013-10-13 22:19:00,68.4,67.1,28.63,East,90,9.0,12.0,96,0.00,,,0.00,meteohub,2013-10-14 03:19:00,
2013-10-13 22:24:00,68.5,67.6,28.63,East,90,13.0,14.0,97,0.00,,,0.00,meteohub,2013-10-14 03:24:00,
2013-10-13 22:30:00,68.4,67.5,28.63,East,90,7.0,14.0,97,0.00,,,0.00,meteohub,2013-10-14 03:30:00,
2013-10-13 22:35:00,68.4,67.5,28.62,East,90,12.0,14.0,97,0.00,,,0.00,meteohub,2013-10-14 03:35:00,
2013-10-13 22:40:00,68.5,67.6,28.62,East,90,15.0,15.0,97,0.00,,,0.00,meteohub,2013-10-14 03:40:00,
2013-10-13 22:45:00,68.4,67.5,28.62,SE,135,8.0,15.0,97,0.00,,,0.00,meteohub,2013-10-14 03:45:00,
2013-10-13 22:50:00,68.5,67.6,28.61,ESE,113,11.0,16.0,97,0.00,,,0.00,meteohub,2013-10-14 03:50:00,
2013-10-13 22:55:00,68.7,68.2,28.61,East,90,8.0,16.0,98,0.00,,,0.00,meteohub,2013-10-14 03:55:00,
2013-10-13 23:00:00,68.5,68.0,28.61,NE,45,8.0,14.0,98,0.00,,,0.00,meteohub,2013-10-14 04:00:00,
2013-10-13 23:01:00,68.5,68.0,28.61,SE,135,8.0,14.0,98,0.00,,,0.00,meteohub,2013-10-14 04:01:00,
2013-10-13 23:02:00,68.5,67.6,28.61,East,90,10.0,14.0,97,0.00,,,0.00,meteohub,2013-10-14 04:02:00,
2013-10-13 23:07:00,68.7,67.8,28.63,East,90,7.0,13.0,97,0.00,,,0.00,meteohub,2013-10-14 04:07:00,
2013-10-13 23:12:00,68.9,68.0,28.63,East,90,8.0,13.0,97,0.00,,,0.00,meteohub,2013-10-14 04:12:00,
2013-10-13 23:17:00,68.9,68.0,28.63,East,90,8.0,13.0,97,0.00,,,0.00,meteohub,2013-10-14 04:17:00,
2013-10-13 23:22:00,68.9,68.0,28.63,SE,135,3.0,12.0,97,0.00,,,0.00,meteohub,2013-10-14 04:22:00,
2013-10-13 23:27:00,68.9,68.0,28.64,North,0,5.0,11.0,97,0.00,,,0.00,meteohub,2013-10-14 04:27:00,
2013-10-13 23:32:00,69.1,68.2,28.64,ESE,113,1.0,10.0,97,0.00,,,0.00,meteohub,2013-10-14 04:32:00,
2013-10-13 23:37:00,69.1,68.2,28.64,East,90,3.0,11.0,97,0.00,,,0.00,meteohub,2013-10-14 04:37:00,
2013-10-13 23:42:00,69.1,67.8,28.63,SE,135,7.0,11.0,96,0.00,,,0.00,meteohub,2013-10-14 04:42:00,
2013-10-13 23:47:00,69.3,68.0,28.63,East,90,7.0,11.0,96,0.00,,,0.00,meteohub,2013-10-14 04:47:00,
2013-10-13 23:52:00,69.1,67.8,28.63,North,0,6.0,11.0,96,0.00,,,0.00,meteohub,2013-10-14 04:52:00,
2013-10-13 23:57:00,68.9,67.6,28.62,East,90,1.0,11.0,96,0.00,,,0.00,meteohub,2013-10-14 04:57:00,